User: anonymous   Login
Location: Unspecified
(0.0000°N, 0.0000°E)
Time: 23:19:44
(UTC+00:00)
Language:

OUFTI-1 - Orbit

View from above orbital plane
View from above orbital plane
View from above satellite
View from above satellite

Ground track
Ground track

The orbit data is extracted from the following two-line orbital elements,

1 41458U 16025C   18016.39046074  .00001286  00000-0  72266-4 0  9999
2 41458  98.1590  71.0114 0169590 296.8105  61.5867 15.04158315 94617
Epoch (UTC): 16 January 2018 09:22:15
Eccentricity: 0.0169590
inclination: 98.1590°
perigee height: 436 km
apogee height: 671 km
right ascension of ascending node: 71.0114°
argument of perigee: 296.8105°
revolutions per day: 15.04158315
mean anomaly at epoch: 61.5867°
orbit number at epoch: 9461

The dashed part of the orbit path shows where the satellite is in the earth's shadow,  

DLR